Zurück zum Katalog

IRIDIUM 33 DEB

AktivPO
NORAD 33777·DEBRIS·🇺🇸 United States

Gestartet Sep 14, 1997 von Baikonur Cosmodrome

Loading…

Nächste Überflüge (nächste 24 Stunden)

TLE

AktuellSource: Space-Track

Epoche: Sep 14, 2026, 12:32 UTC

1 33777U 97051Q   26257.52281029  .00002029  00000-0  44361-3 0  9994
2 33777  86.3718 275.0644 0008530  57.2811 302.9219 14.57306015925486

Verfolge IRIDIUM 33 DEB in Echtzeit mit AllMySat

Download on the App Store